Date String (YYYY-MM-DD hh:mm:ss) UTC,Instrument flags,Ambient pressure (hPa),Sample flow (lpm),Bypass flow (lpm),Sample temperature (°C),Ambient temperature (°C),ASC tube jacket temperature (°C),LED temperature (°C),Box temperature (°C),Sample RH (%),Span deviation,Mass concentration (μg/m³),Mass concentration (μg/m³),Mass concentration (μg/m³)
DateTimeUTC,F1_M11,P_M11,Q1_M11,Q2_M11,T1_M11,T2_M11,T3_M11,T4_M11,T5_M11,U1_M11,ZSPAN_M11,X0_M11,X2_M11,X1_M11
2022-06-10 13:00:00,,0827.5,5.00,0.00,29.7,28.8,00.0,38.7,31.6,23.6,0000.0,0012.64,0004.77,0003.11
2022-06-10 13:01:00,,0827.5,5.00,0.00,29.8,28.8,00.0,38.7,31.6,23.6,0000.0,0012.82,0004.77,0003.11
2022-06-10 13:02:00,,0827.5,5.00,0.00,29.8,28.8,00.0,38.7,31.6,23.6,0000.0,0013.12,0004.82,0003.11
2022-06-10 13:03:00,,0827.5,4.98,0.00,29.8,28.8,00.0,38.7,31.7,23.5,0000.0,0012.82,0004.73,0003.08
2022-06-10 13:04:00,,0827.5,4.99,0.00,29.8,28.8,00.0,38.7,31.7,23.7,0000.0,0012.60,0004.69,0003.07
2022-06-10 13:05:00,,0827.6,5.00,0.00,29.8,28.8,00.0,38.7,31.6,24.3,0000.0,0011.89,0004.73,0003.07
2022-06-10 13:06:00,,0827.6,5.00,0.00,29.8,28.8,00.0,38.7,31.6,24.3,0000.0,0011.74,0004.71,0003.07
2022-06-10 13:07:00,,0827.7,5.00,0.00,29.8,28.8,00.0,38.7,31.6,24.5,0000.0,0011.68,0004.73,0003.05
2022-06-10 13:08:00,,0827.7,5.00,0.00,29.8,28.8,00.0,38.7,31.7,25.1,0000.0,0011.47,0004.74,0003.05
2022-06-10 13:09:00,,0827.7,5.00,0.00,29.8,28.8,00.0,38.7,31.7,24.9,0000.0,0012.45,0004.73,0003.03
2022-06-10 13:10:00,,0827.7,4.99,0.00,29.8,28.8,00.0,38.7,31.7,24.5,0000.0,0012.01,0004.67,0003.02
2022-06-10 13:11:00,,0827.7,5.00,0.00,29.8,28.8,00.0,38.7,31.7,24.8,0000.0,0012.27,0004.68,0002.99
2022-06-10 13:12:00,,0827.7,5.00,0.00,29.8,28.9,00.0,38.7,31.7,25.3,0000.0,0012.43,0004.68,0002.97
2022-06-10 13:13:00,,0827.7,4.99,0.00,29.8,28.9,00.0,38.7,31.7,24.8,0000.0,0012.24,0004.61,0002.97
2022-06-10 13:14:00,,0827.7,4.99,0.00,29.8,28.9,00.0,38.7,31.7,24.9,0000.0,0012.30,0004.57,0002.97
2022-06-10 13:15:00,,0827.7,5.00,0.00,29.8,28.9,00.0,38.7,31.7,25.2,0000.0,0013.61,0004.59,0002.99
2022-06-10 13:16:00,,0827.7,5.01,0.00,29.8,28.9,00.0,38.7,31.7,24.6,0000.0,0013.77,0004.60,0002.99
2022-06-10 13:17:00,,0827.7,5.01,0.00,29.8,28.9,00.0,38.7,31.7,24.9,0000.0,0013.77,0004.56,0002.98
2022-06-10 13:18:00,,0827.7,4.98,0.00,29.8,28.9,00.0,38.7,31.7,25.2,0000.0,0013.85,0004.61,0003.00
2022-06-10 13:19:00,,0827.7,4.99,0.00,29.8,28.9,00.0,38.7,31.7,25.1,0000.0,0013.62,0004.57,0003.03
2022-06-10 13:20:00,,0827.8,5.01,0.00,29.9,28.9,00.0,38.8,31.7,25.6,0000.0,0012.20,0004.48,0003.03
2022-06-10 13:21:00,,0827.7,5.01,0.00,29.9,28.9,00.0,38.8,31.8,25.0,0000.0,0012.34,0004.47,0003.02
2022-06-10 13:22:00,,0827.7,4.99,0.00,29.9,29.0,00.0,38.8,31.8,25.1,0000.0,0012.08,0004.48,0003.04
2022-06-10 13:23:00,,0827.8,4.99,0.00,29.9,29.0,00.0,38.8,31.7,24.8,0000.0,0012.20,0004.47,0003.04
2022-06-10 13:24:00,,0827.8,5.01,0.00,29.9,29.0,00.0,38.8,31.8,24.8,0000.0,0012.79,0004.49,0003.05
2022-06-10 13:25:00,,0827.8,5.00,0.00,29.9,29.0,00.0,38.8,31.7,25.7,0000.0,0012.59,0004.51,0003.05
2022-06-10 13:26:00,,0827.8,5.00,0.00,29.9,29.0,00.0,38.8,31.7,25.9,0000.0,0011.40,0004.48,0003.03
2022-06-10 13:27:00,,0827.7,5.01,0.00,29.9,29.0,00.0,38.8,31.8,24.6,0000.0,0011.36,0004.45,0003.00
2022-06-10 13:28:00,,0827.7,4.99,0.00,29.9,29.0,00.0,38.8,31.8,24.3,0000.0,0011.59,0004.49,0002.99
2022-06-10 13:29:00,,0827.8,5.00,0.00,29.9,29.1,00.0,38.8,31.8,25.4,0000.0,0012.01,0004.44,0002.95
2022-06-10 13:30:00,,0827.7,5.00,0.00,29.9,29.1,00.0,38.8,31.8,25.2,0000.0,0012.45,0004.45,0002.93
2022-06-10 13:31:00,,0827.7,5.00,0.00,29.9,29.1,00.0,38.8,31.8,25.8,0000.0,0012.73,0004.53,0002.93
2022-06-10 13:32:00,,0827.7,4.99,0.00,30.0,29.1,00.0,38.8,31.9,25.9,0000.0,0012.50,0004.55,0002.93
2022-06-10 13:33:00,,0827.7,4.99,0.00,30.0,29.1,00.0,38.8,31.9,26.5,0000.0,0012.52,0004.50,0002.91
2022-06-10 13:34:00,,0827.7,5.00,0.00,30.0,29.1,00.0,38.9,31.9,25.2,0000.0,0012.50,0004.49,0002.90
2022-06-10 13:35:00,,0827.7,4.99,0.00,30.0,29.1,00.0,38.9,31.9,24.0,0000.0,0011.89,0004.50,0002.88
2022-06-10 13:36:00,,0827.7,5.00,0.00,30.0,29.2,00.0,38.9,31.9,25.7,0000.0,0012.10,0004.48,0002.86
2022-06-10 13:37:00,,0827.7,5.01,0.00,30.0,29.2,00.0,38.9,31.9,27.0,0000.0,0012.24,0004.52,0002.87
2022-06-10 13:38:00,,0827.7,4.99,0.00,30.0,29.2,00.0,38.9,31.9,28.9,0000.0,0012.80,0004.55,0002.91
2022-06-10 13:39:00,,0827.7,4.99,0.00,30.0,29.2,00.0,38.9,31.9,26.1,0000.0,0013.02,0004.56,0002.96
2022-06-10 13:40:00,,0827.7,5.00,0.00,30.0,29.2,00.0,38.9,31.9,24.5,0000.0,0013.09,0004.52,0002.97
2022-06-10 13:41:00,,0827.7,5.01,0.00,30.1,29.2,00.0,38.9,32.0,25.1,0000.0,0013.06,0004.49,0002.96
2022-06-10 13:42:00,,0827.8,5.02,0.00,30.1,29.2,00.0,38.9,32.0,25.7,0000.0,0012.96,0004.48,0002.97
2022-06-10 13:43:00,,0827.7,5.01,0.00,30.1,29.3,00.0,38.9,32.0,26.2,0000.0,0013.29,0004.47,0002.98
2022-06-10 13:44:00,,0827.7,4.98,0.00,30.1,29.3,00.0,39.0,32.0,25.1,0000.0,0013.50,0004.43,0002.97
2022-06-10 13:45:00,,0827.7,5.01,0.00,30.1,29.0,00.0,38.9,32.0,25.1,0000.0,0013.11,0004.43,0002.95
2022-06-10 13:46:00,,0827.6,5.00,0.00,30.1,28.1,00.0,38.9,31.7,25.5,0000.0,0013.27,0004.41,0002.95
2022-06-10 13:47:00,,0827.6,5.01,0.00,30.0,27.5,00.0,38.8,31.5,26.2,0000.0,0014.23,0004.48,0002.96
2022-06-10 13:48:00,,0827.5,4.99,0.00,29.9,27.4,00.0,38.8,31.4,26.4,0000.0,0014.23,0004.50,0002.97
2022-06-10 13:49:00,,0827.5,5.01,0.00,29.8,27.4,00.0,38.7,31.4,29.1,0000.0,0013.77,0004.50,0002.95
2022-06-10 13:50:00,,0827.4,4.99,0.00,29.7,27.5,00.0,38.7,31.3,29.9,0000.0,0013.70,0004.58,0002.94
2022-06-10 13:51:00,,0827.5,5.00,0.00,29.7,27.6,00.0,38.7,31.3,30.6,0000.0,0013.05,0004.66,0003.02
2022-06-10 13:52:00,,0827.5,5.01,0.00,29.6,27.8,00.0,38.7,31.4,30.9,0000.0,0012.76,0004.70,0003.08
2022-06-10 13:53:00,,0827.5,5.00,0.00,29.6,27.9,00.0,38.7,31.4,30.5,0000.0,0013.07,0004.72,0003.11
2022-06-10 13:54:00,,0827.5,5.02,0.00,29.6,28.0,00.0,38.6,31.4,31.8,0000.0,0013.16,0004.75,0003.14
2022-06-10 13:55:00,,0827.5,4.99,0.00,29.6,28.1,00.0,38.6,31.4,31.4,0000.0,0012.89,0004.85,0003.16
2022-06-10 13:56:00,,0827.5,5.00,0.00,29.6,28.2,00.0,38.6,31.4,30.3,0000.0,0013.51,0004.91,0003.20
2022-06-10 13:57:00,,0827.5,5.01,0.00,29.6,28.3,00.0,38.6,31.4,31.0,0000.0,0014.30,0004.92,0003.23
2022-06-10 13:58:00,,0827.5,5.00,0.00,29.6,28.4,00.0,38.6,31.4,31.2,0000.0,0013.49,0004.94,0003.28
2022-06-10 13:59:00,,0827.6,4.99,0.00,29.6,28.5,00.0,38.6,31.5,29.8,0000.0,0013.34,0004.95,0003.31
